2015-11-23 00:02:51 r, 14.36m,0000000161Hz,0000000000c,0000000.000s, 018.6C,00002195
2015-11-23 00:12:51 r, 14.21m,0000000184Hz,0000000000c,0000000.000s, 018.6C,00002195
2015-11-23 00:22:51 r, 14.15m,0000000195Hz,0000000000c,0000000.000s, 018.6C,00002195
2015-11-23 00:32:51 r, 14.25m,0000000177Hz,0000000000c,0000000.000s, 018.6C,00002195
2015-11-23 00:42:51 r, 14.23m,0000000180Hz,0000000000c,0000000.000s, 018.6C,00002195
2015-11-23 00:52:51 r, 13.92m,0000000241Hz,0000000000c,0000000.000s, 018.6C,00002195
2015-11-23 01:02:53 r, 13.95m,0000000233Hz,0000000000c,0000000.000s, 018.3C,00002195
2015-11-23 01:12:51 r, 13.71m,0000000293Hz,0000000000c,0000000.000s, 018.6C,00002195
2015-11-23 01:22:51 r, 14.48m,0000000144Hz,0000000000c,0000000.000s, 018.6C,00002195
2015-11-23 01:32:51 r, 13.69m,0000000297Hz,0000000000c,0000000.000s, 019.0C,00002195
2015-11-23 01:42:51 r, 13.76m,0000000281Hz,0000000000c,0000000.000s, 019.0C,00002195
2015-11-23 01:52:51 r, 14.01m,0000000222Hz,0000000000c,0000000.000s, 019.0C,00002195
2015-11-23 02:02:54 r, 13.73m,0000000287Hz,0000000000c,0000000.000s, 019.3C,00002195
2015-11-23 02:12:51 r, 13.95m,0000000234Hz,0000000000c,0000000.000s, 019.3C,00002195
2015-11-23 02:22:51 r, 14.26m,0000000176Hz,0000000000c,0000000.000s, 019.3C,00002195
2015-11-23 02:32:52 r, 13.86m,0000000254Hz,0000000000c,0000000.000s, 019.3C,00002195
2015-11-23 02:42:51 r, 13.79m,0000000273Hz,0000000000c,0000000.000s, 019.3C,00002195
2015-11-23 02:52:52 r, 13.73m,0000000287Hz,0000000000c,0000000.000s, 019.3C,00002195
2015-11-23 03:02:53 r, 14.37m,0000000159Hz,0000000000c,0000000.000s, 019.3C,00002195
2015-11-23 03:12:52 r, 14.96m,0000000089Hz,0000005045c,0000000.011s, 019.3C,00002195
2015-11-23 03:22:51 r, 15.10m,0000000081Hz,0000005716c,0000000.012s, 019.3C,00002195
2015-11-23 03:32:52 r, 15.09m,0000000083Hz,0000005659c,0000000.012s, 019.0C,00002195
2015-11-23 03:42:51 r, 14.80m,0000000103Hz,0000004326c,0000000.009s, 019.0C,00002195
2015-11-23 03:52:51 r, 14.68m,0000000116Hz,0000003889c,0000000.008s, 019.0C,00002195
2015-11-23 04:02:52 r, 14.15m,0000000195Hz,0000000000c,0000000.000s, 019.0C,00002195
2015-11-23 04:12:51 r, 14.24m,0000000179Hz,0000000000c,0000000.000s, 019.0C,00002195
2015-11-23 04:22:51 r, 14.20m,0000000185Hz,0000000000c,0000000.000s, 019.0C,00002195
2015-11-23 04:32:51 r, 14.38m,0000000157Hz,0000000000c,0000000.000s, 019.0C,00002195
2015-11-23 04:42:51 r, 13.70m,0000000294Hz,0000000000c,0000000.000s, 019.0C,00002195
2015-11-23 04:52:51 r, 14.43m,0000000151Hz,0000000000c,0000000.000s, 019.0C,00002195
2015-11-23 05:02:51 r, 14.34m,0000000163Hz,0000000000c,0000000.000s, 019.0C,00002195
2015-11-23 05:12:54 r, 14.06m,0000000211Hz,0000000000c,0000000.000s, 018.6C,00002195
2015-11-23 05:22:51 r, 13.73m,0000000286Hz,0000000000c,0000000.000s, 018.6C,00002195
2015-11-23 05:32:52 r, 13.79m,0000000271Hz,0000000000c,0000000.000s, 018.6C,00002195
2015-11-23 05:42:54 r, 13.79m,0000000271Hz,0000000000c,0000000.000s, 018.6C,00002195
2015-11-23 05:52:52 r, 13.90m,0000000245Hz,0000000000c,0000000.000s, 018.3C,00002195
2015-11-23 06:02:51 r, 13.77m,0000000276Hz,0000000000c,0000000.000s, 018.3C,00002195
2015-11-23 06:12:51 r, 14.91m,0000000093Hz,0000004819c,0000000.010s, 018.3C,00002195
2015-11-23 06:22:51 r, 13.90m,0000000244Hz,0000000000c,0000000.000s, 018.0C,00002195
2015-11-23 06:32:51 r, 14.93m,0000000095Hz,0000004920c,0000000.011s, 018.3C,00002195
2015-11-23 06:42:53 r, 13.67m,0000000302Hz,0000000000c,0000000.000s, 018.3C,00002195
2015-11-23 06:52:52 r, 13.70m,0000000295Hz,0000000000c,0000000.000s, 018.3C,00002195
2015-11-23 07:02:51 r, 13.99m,0000000224Hz,0000000000c,0000000.000s, 018.3C,00002195
2015-11-23 07:12:51 r, 13.34m,0000000409Hz,0000000000c,0000000.000s, 018.3C,00002195
2015-11-23 07:22:51 r, 11.57m,0000002103Hz,0000000000c,0000000.000s, 018.3C,00002195
2015-11-23 07:32:51 r, 09.88m,0000010047Hz,0000000000c,0000000.000s, 018.3C,00002195
2015-11-23 07:42:51 r, 08.36m,0000040336Hz,0000000000c,0000000.000s, 018.3C,00002195
2015-11-23 07:52:51 r, 07.39m,0000098004Hz,0000000000c,0000000.000s, 018.3C,00002195
2015-11-23 08:02:54 r, 06.55m,0000213620Hz,0000000000c,0000000.000s, 018.3C,00002195
2015-11-23 08:12:52 r, 06.02m,0000346241Hz,0000000000c,0000000.000s, 018.3C,00002195
2015-11-23 08:22:51 r, 00.00m,0000401397Hz,0000000000c,0000000.000s, 018.0C,00002195
2015-11-23 08:32:54 r, 00.00m,0000492588Hz,0000000000c,0000000.000s, 018.3C,00002195
2015-11-23 08:42:51 r, 00.00m,0000563103Hz,0000000000c,0000000.000s, 018.0C,00002195
2015-11-23 08:52:51 r, 00.00m,0000563191Hz,0000000000c,0000000.000s, 018.0C,00002195
2015-11-23 09:02:52 r, 00.00m,0000563179Hz,0000000000c,0000000.000s, 018.3C,00002195
2015-11-23 09:12:51 r, 00.00m,0000563211Hz,0000000000c,0000000.000s, 018.6C,00002195
2015-11-23 09:22:51 r, 00.00m,0000563225Hz,0000000000c,0000000.000s, 019.0C,00002195
2015-11-23 09:32:52 r, 00.00m,0000563219Hz,0000000000c,0000000.000s, 019.0C,00002195
2015-11-23 09:42:52 r, 00.00m,0000563236Hz,0000000000c,0000000.000s, 019.0C,00002195
2015-11-23 09:52:51 r, 00.00m,0000563284Hz,0000000000c,0000000.000s, 019.0C,00002195
2015-11-23 10:02:52 r, 00.00m,0000563265Hz,0000000000c,0000000.000s, 019.0C,00002195
2015-11-23 10:12:52 r, 00.00m,0000563245Hz,0000000000c,0000000.000s, 019.3C,00002195
2015-11-23 10:22:51 r, 00.00m,0000563276Hz,0000000000c,0000000.000s, 019.3C,00002195
2015-11-23 10:32:52 r, 00.00m,0000563418Hz,0000000000c,0000000.000s, 019.9C,00002195
2015-11-23 10:42:52 r, 00.00m,0000563403Hz,0000000000c,0000000.000s, 020.3C,00002195
2015-11-23 10:52:51 r, 00.00m,0000563584Hz,0000000000c,0000000.000s, 020.6C,00002195
2015-11-23 11:02:51 r, 00.00m,0000563465Hz,0000000000c,0000000.000s, 020.9C,00002195
2015-11-23 11:12:51 r, 00.00m,0000563536Hz,0000000000c,0000000.000s, 020.9C,00002195
2015-11-23 11:22:51 r, 00.00m,0000563712Hz,0000000000c,0000000.000s, 021.9C,00002195
2015-11-23 11:32:51 r, 00.00m,0000563855Hz,0000000000c,0000000.000s, 022.5C,00002195
2015-11-23 11:42:54 r, 00.00m,0000563817Hz,0000000000c,0000000.000s, 022.2C,00002195
2015-11-23 11:52:51 r, 00.00m,0000563668Hz,0000000000c,0000000.000s, 021.5C,00002195
2015-11-23 12:02:52 r, 00.00m,0000563464Hz,0000000000c,0000000.000s, 021.2C,00002195
2015-11-23 12:12:54 r, 00.00m,0000563523Hz,0000000000c,0000000.000s, 020.6C,00002195
2015-11-23 12:22:51 r, 00.00m,0000563450Hz,0000000000c,0000000.000s, 020.6C,00002195
2015-11-23 12:32:52 r, 00.00m,0000563476Hz,0000000000c,0000000.000s, 020.3C,00002195
2015-11-23 12:42:51 r, 00.00m,0000563596Hz,0000000000c,0000000.000s, 020.3C,00002195
2015-11-23 12:52:51 r, 00.00m,0000563644Hz,0000000000c,0000000.000s, 020.9C,00002195
2015-11-23 13:02:54 r, 00.00m,0000563742Hz,0000000000c,0000000.000s, 020.9C,00002195
2015-11-23 13:12:52 r, 00.00m,0000563643Hz,0000000000c,0000000.000s, 021.2C,00002195
2015-11-23 13:22:51 r, 00.00m,0000563565Hz,0000000000c,0000000.000s, 021.2C,00002195
2015-11-23 13:32:52 r, 00.00m,0000563538Hz,0000000000c,0000000.000s, 020.9C,00002195
2015-11-23 13:42:51 r, 00.00m,0000563442Hz,0000000000c,0000000.000s, 020.3C,00002195
2015-11-23 13:52:51 r, 00.00m,0000563520Hz,0000000000c,0000000.000s, 020.3C,00002195
2015-11-23 14:02:52 r, 00.00m,0000563466Hz,0000000000c,0000000.000s, 019.9C,00002195
2015-11-23 14:12:52 r, 00.00m,0000563425Hz,0000000000c,0000000.000s, 019.9C,00002195
2015-11-23 14:22:51 r, 00.00m,0000563486Hz,0000000000c,0000000.000s, 019.9C,00002195
2015-11-23 14:32:53 r, 00.00m,0000563391Hz,0000000000c,0000000.000s, 019.6C,00002195
2015-11-23 14:42:52 r, 00.00m,0000563371Hz,0000000000c,0000000.000s, 019.6C,00002195
2015-11-23 14:52:51 r, 00.00m,0000563425Hz,0000000000c,0000000.000s, 019.3C,00002195
2015-11-23 15:02:51 r, 00.00m,0000563393Hz,0000000000c,0000000.000s, 019.3C,00002195
2015-11-23 15:12:53 r, 00.00m,0000563247Hz,0000000000c,0000000.000s, 019.0C,00002195
2015-11-23 15:22:51 r, 00.00m,0000563299Hz,0000000000c,0000000.000s, 019.0C,00002195
2015-11-23 15:32:51 r, 00.00m,0000563191Hz,0000000000c,0000000.000s, 019.0C,00002195
2015-11-23 15:42:52 r, 00.00m,0000563227Hz,0000000000c,0000000.000s, 018.6C,00002195
2015-11-23 15:52:51 r, 00.00m,0000563212Hz,0000000000c,0000000.000s, 018.3C,00002195
2015-11-23 16:02:52 r, 00.00m,0000518007Hz,0000000000c,0000000.000s, 018.0C,00002195
2015-11-23 16:12:52 r, 00.00m,0000407834Hz,0000000000c,0000000.000s, 018.0C,00002195
2015-11-23 16:22:51 r, 06.38m,0000249582Hz,0000000000c,0000000.000s, 017.7C,00002195
2015-11-23 16:32:51 r, 07.03m,0000137410Hz,0000000000c,0000000.000s, 017.7C,00002195
2015-11-23 16:42:51 r, 07.93m,0000059576Hz,0000000000c,0000000.000s, 017.4C,00002195
2015-11-23 16:52:51 r, 09.25m,0000017683Hz,0000000000c,0000000.000s, 017.4C,00002195
2015-11-23 17:02:52 r, 11.18m,0000003004Hz,0000000000c,0000000.000s, 017.0C,00002195
2015-11-23 17:12:54 r, 13.03m,0000000551Hz,0000000000c,0000000.000s, 016.7C,00002195
2015-11-23 17:22:51 r, 14.90m,0000000097Hz,0000004789c,0000000.010s, 016.7C,00002195
2015-11-23 17:32:52 r, 16.49m,0000000023Hz,0000020546c,0000000.045s, 016.7C,00002195
2015-11-23 17:42:52 r, 17.19m,0000000012Hz,0000039354c,0000000.085s, 016.4C,00002195
2015-11-23 17:52:51 r, 17.46m,0000000009Hz,0000049911c,0000000.108s, 016.1C,00002195
2015-11-23 18:02:51 r, 17.52m,0000000009Hz,0000052773c,0000000.115s, 015.7C,00002195
2015-11-23 18:12:53 r, 17.49m,0000000009Hz,0000051192c,0000000.111s, 015.7C,00002195
2015-11-23 18:22:51 r, 17.49m,0000000009Hz,0000051503c,0000000.112s, 015.4C,00002195
2015-11-23 18:32:53 r, 17.46m,0000000010Hz,0000049868c,0000000.108s, 015.4C,00002195
2015-11-23 18:42:52 r, 17.33m,0000000011Hz,0000044145c,0000000.096s, 015.1C,00002195
2015-11-23 18:52:51 r, 17.40m,0000000010Hz,0000047276c,0000000.103s, 015.1C,00002195
2015-11-23 19:02:51 r, 17.41m,0000000010Hz,0000047841c,0000000.104s, 015.1C,00002195
2015-11-23 19:12:51 r, 17.38m,0000000010Hz,0000046280c,0000000.100s, 015.1C,00002195
2015-11-23 19:22:53 r, 16.91m,0000000015Hz,0000030088c,0000000.065s, 015.1C,00002195
2015-11-23 19:32:51 r, 16.58m,0000000020Hz,0000022193c,0000000.048s, 015.1C,00002195
2015-11-23 19:42:52 r, 17.33m,0000000010Hz,0000044409c,0000000.096s, 015.1C,00002195
2015-11-23 19:52:51 r, 17.32m,0000000010Hz,0000044093c,0000000.096s, 014.8C,00002195
2015-11-23 20:02:51 r, 17.29m,0000000011Hz,0000043183c,0000000.094s, 014.8C,00002195
2015-11-23 20:12:53 r, 17.27m,0000000010Hz,0000042238c,0000000.092s, 014.8C,00002195
2015-11-23 20:22:52 r, 17.23m,0000000011Hz,0000040687c,0000000.088s, 014.5C,00002195
2015-11-23 20:32:51 r, 17.21m,0000000012Hz,0000040035c,0000000.087s, 014.5C,00002195
2015-11-23 20:42:51 r, 17.17m,0000000012Hz,0000038526c,0000000.084s, 014.5C,00002195
2015-11-23 20:52:51 r, 17.13m,0000000012Hz,0000037253c,0000000.081s, 014.1C,00002195
2015-11-23 21:02:53 r, 17.08m,0000000013Hz,0000035551c,0000000.077s, 014.1C,00002195
2015-11-23 21:12:51 r, 17.01m,0000000014Hz,0000033286c,0000000.072s, 014.1C,00002195
2015-11-23 21:22:52 r, 16.94m,0000000015Hz,0000031060c,0000000.067s, 014.1C,00002195
2015-11-23 21:32:52 r, 16.97m,0000000014Hz,0000031898c,0000000.069s, 014.1C,00002195
2015-11-23 21:42:54 r, 17.01m,0000000014Hz,0000033455c,0000000.073s, 013.8C,00002195
2015-11-23 21:52:51 r, 17.01m,0000000014Hz,0000033228c,0000000.072s, 013.8C,00002195
2015-11-23 22:02:51 r, 16.74m,0000000018Hz,0000025820c,0000000.056s, 013.5C,00002195
2015-11-23 22:12:51 r, 16.52m,0000000022Hz,0000021160c,0000000.046s, 013.5C,00002195
2015-11-23 22:22:54 r, 15.70m,0000000046Hz,0000009964c,0000000.022s, 013.5C,00002195
2015-11-23 22:32:51 r, 15.81m,0000000042Hz,0000010998c,0000000.024s, 013.8C,00002195
2015-11-23 22:42:53 r, 15.97m,0000000036Hz,0000012795c,0000000.028s, 014.1C,00002195
2015-11-23 22:52:51 r, 16.14m,0000000031Hz,0000014956c,0000000.032s, 014.1C,00002195
2015-11-23 23:02:51 r, 15.94m,0000000037Hz,0000012409c,0000000.027s, 014.1C,00002195
2015-11-23 23:12:52 r, 15.79m,0000000042Hz,0000010859c,0000000.024s, 014.1C,00002195
2015-11-23 23:22:53 r, 16.11m,0000000032Hz,0000014450c,0000000.031s, 014.1C,00002195
2015-11-23 23:32:52 r, 16.16m,0000000031Hz,0000015229c,0000000.033s, 014.1C,00002195
2015-11-23 23:42:52 r, 16.39m,0000000024Hz,0000018838c,0000000.041s, 014.1C,00002195
2015-11-23 23:52:53 r, 16.57m,0000000020Hz,0000022225c,0000000.048s, 014.1C,00002195
